Location: Peterborough
(44.3091°N, 78.3197°W)
Time: 07:33:01
(UTC-05:00)

A-11 Canister half - Pass Details

Date: 19 December 2023
Orbit: 1512 x 1687 km, 47.2° (Epoch: 25 February)

Event Time Altitude Azimuth Distance (km) Brightness Sun altitude
Rises 19:01:57 0° 206° (SSW) 4,639 12.0 -25.1°
Reaches altitude 10° 19:05:16 10° 197° (SSW) 3,664 11.3 -25.7°
Maximum altitude 19:13:22 36° 135° (SE) 2,243 9.5 -27.1°
Enters shadow 19:13:59 36° 127° (SE) 2,257 9.5 -27.2°
